Hawarden, United Kingdom

2:48 PM BST on August 29, 2016 (GMT +0100)
Hawarden

Weather History for EGNR - January, 2013

Change the Weather History Date:

Monday, January 7, 2013

  Actual Average (EGGP) Record (EGGP)
Temperature  
Mean Temperature 48 °F -  
Max Temperature 52 °F 44 °F 57 °F (2005)
Min Temperature 44 °F 35 °F 26 °F (2003)
Degree Days  
Heating Degree Days 18    
Moisture  
Dew Point 47 °F    
Average Humidity 93    
Maximum Humidity 100    
Minimum Humidity 78    
Precipitation  
Precipitation 0.00 in - - ()
Sea Level Pressure  
Sea Level Pressure 30.17 in    
Wind  
Wind Speed 6 mph ()    
Max Wind Speed 10 mph    
Max Gust Speed -    
Visibility 6.3 miles    
Events Rain    
Averages and records for this station are not official NWS values.
T = Trace of Precipitation, MM = Missing Value Source: Averaged Metar Reports

Daily Weather History Graph

Daily Weather History Graph

Search for Another Location

Airport or City:

Trip Planner

Search our weather history database for the weather conditions in past years. The results will help you decide how hot, cold, wet, or windy it might be!

Date:

Astronomy

Jan. 07, 2013 Rise Set
Actual Time 8:24 AM GMT 4:12 PM GMT
Civil Twilight 7:42 AM GMT 4:54 PM GMT
Nautical Twilight 6:58 AM GMT 5:38 PM GMT
Astronomical Twilight 6:16 AM GMT 6:20 PM GMT
Moon 3:18 AM GMT (1/7) 12:22 PM GMT (1/7)
Length of Visible Light 9h 11m
Length of Day
7h 48m
Waning Crescent, 25% of the Moon is Illuminated
Jan 7
Waning Crescent
Jan 11
New
Jan 18
First Quarter
Jan 27
Full
Feb 3
Last Quarter

Hourly Weather History & Observations

Time (GMT) Temp. Windchill Dew Point Humidity Pressure Visibility Wind Dir Wind Speed Gust Speed Precip Events Conditions
2:50 AM 44 °F - 44 °F 99% 30.28 in 8 mi South 3.5 mph - -   Scattered Clouds
5:50 AM 46 °F - 46 °F 99% 30.25 in 8 mi SE 5.8 mph - -  
6:50 AM 48.2 °F - 46.4 °F 93% 30.24 in 6.2 mi South 8.1 mph - N/A   Scattered Clouds
7:20 AM 48.2 °F - 46.4 °F 93% 30.24 in 6.2 mi South 5.8 mph - N/A   Scattered Clouds
7:50 AM 46.4 °F 42.4 °F 46.4 °F 100% 30.21 in 6.2 mi South 8.1 mph - N/A   Scattered Clouds
8:20 AM 48.2 °F - 48.2 °F 100% 30.21 in 5.6 mi South 5.8 mph - N/A   Scattered Clouds
8:50 AM 47 °F - 47 °F 99% 30.23 in 6 mi SE 8.1 mph - -   Partly Cloudy
8:50 AM 48.2 °F - 46.4 °F 93% 30.21 in 5.6 mi SSE 9.2 mph - N/A   Scattered Clouds
9:20 AM 46.4 °F 43.5 °F 46.4 °F 100% 30.21 in 5.6 mi SSE 5.8 mph - N/A   Scattered Clouds
9:50 AM 46.4 °F 43.5 °F 46.4 °F 100% 30.21 in 6.2 mi SSE 5.8 mph - N/A   Scattered Clouds
10:20 AM 48.2 °F - 46.4 °F 93% 30.21 in 6.2 mi South 9.2 mph - N/A   Scattered Clouds
10:50 AM 50.0 °F - 46.4 °F 87% 30.21 in 6.2 mi South 10.4 mph - N/A   Mostly Cloudy
11:20 AM 48.2 °F - 46.4 °F 93% 30.18 in 6.2 mi SSE 10.4 mph - N/A   Mostly Cloudy
11:50 AM 50.0 °F - 48.2 °F 94% 30.18 in 6.2 mi SSE 9.2 mph - N/A   Mostly Cloudy
12:20 PM 50.0 °F - 46.4 °F 87% 30.18 in 6.2 mi SSE 8.1 mph - N/A   Mostly Cloudy
12:50 PM 51.8 °F - 46.4 °F 82% 30.18 in 6.2 mi South 5.8 mph - N/A   Mostly Cloudy
1:20 PM 51.8 °F - 48.2 °F 88% 30.18 in 6.2 mi South 5.8 mph - N/A Rain Light Rain
1:50 PM 50.0 °F - 46.4 °F 87% 30.15 in 6.2 mi South 6.9 mph - N/A Rain Rain
2:20 PM 51.8 °F - 48.2 °F 88% 30.15 in 5.6 mi South 5.8 mph - N/A Rain Rain
2:50 PM 49 °F - 49 °F 98% 30.17 in 6 mi SSE 4.6 mph - - Rain Rain
2:50 PM 50.0 °F - 48.2 °F 94% 30.15 in 6.2 mi SSE 5.8 mph - N/A Rain Light Rain
3:20 PM 50.0 °F - 46.4 °F 87% 30.15 in 6.2 mi SSE 6.9 mph - N/A   Scattered Clouds
3:50 PM 50.0 °F - 48.2 °F 94% 29.89 in 6.2 mi SSE 6.9 mph - N/A   Scattered Clouds
4:20 PM 50.0 °F - 48.2 °F 94% 30.15 in 6.2 mi SSE 8.1 mph - N/A   Scattered Clouds
4:50 PM 50.0 °F - 48.2 °F 94% 30.15 in 6.2 mi SSE 8.1 mph - N/A   Partly Cloudy
5:20 PM 50.0 °F - 48.2 °F 94% 30.15 in 6.2 mi South 10.4 mph - N/A   Partly Cloudy
6:20 PM 50.0 °F - 48.2 °F 94% 30.15 in 6.2 mi SSW 5.8 mph - N/A   Partly Cloudy
6:50 PM 50.0 °F - 48.2 °F 94% 30.15 in 6.2 mi SSW 5.8 mph - N/A   Partly Cloudy
7:20 PM 50.0 °F - 48.2 °F 94% 30.15 in 6.2 mi SW 8.1 mph - N/A   Partly Cloudy
7:50 PM 48.2 °F - 46.4 °F 93% 30.15 in 6.2 mi SSE 6.9 mph - N/A   Partly Cloudy
8:20 PM 48.2 °F - 46.4 °F 93% 30.15 in 6.2 mi Variable 2.3 mph - N/A   Partly Cloudy
8:50 PM 49 °F - 46 °F 86% 30.16 in 10 mi SE 5.8 mph - -   Mostly Cloudy
8:50 PM 51.8 °F - 48.2 °F 88% 30.15 in 6.2 mi South 6.9 mph - N/A   Partly Cloudy
11:50 PM 52 °F - 47 °F 78% 30.15 in 22 mi South 8.1 mph - -   Overcast